Погода в Иерапетре

Греция     35°00′47″N   25°44′33″E
темп.,
°C
ветер,
м/с
пор.,
м/с
влажн.,
%
обл.,
%
осадки,
мм/ч
давл.,
гПа
погр.,
м
13 мая, чт
чт1300:00+19зюз23660 0.0 101191
03:00+19з34600 0.0 1010131
06:00+18з34590 0.0 1010155
09:00+20зюз34545 0.0 1011299
12:00+21юз67630 0.0 1011538
15:00+21юз56660 0.0 1012533
18:00+20зюз45690 0.0 1012413
21:00+19сз237514 0.0 101379
14 мая, пт
пт1400:00+18ссв1173100 0.0 101372
03:00+17з11725 0.0 1013119
06:00+17зсз11695 0.0 1013131
09:00+20ююв01590 0.0 1015208
12:00+21ююз32620 0.0 1016451
15:00+21юз32630 0.0 1016493
18:00+21юз22630 0.0 1015351
21:00+19зсз01720 0.0 101540
15 мая, сб
сб1500:00+18вюв11720 0.0 1015103
03:00+18всв11715 0.0 101473
06:00+18з116430 0.0 101377
09:00+20ююз22610 0.0 1014235
12:00+20ююз556661 0.0 1014374
15:00+21юз676360 0.0 1012398
18:00+21юз5663100 0.0 1011272
21:00+19зюз347274 0.0 101092
16 мая, вс
вс1600:00+20юз4562100 0.0 100995
03:00+19з57555 0.0 1008127
06:00+17с33742 0.0 1008123
09:00+19в22660 0.0 1009543
12:00+21юв33575 0.0 1009633
15:00+21зюз126015 0.0 1009612
18:00+21св23598 0.0 1009626
21:00+18ссв4469100 0.0 1010168
17 мая, пн
пн1700:00+18ссв336299 0.0 1011102
03:00+17с22625 0.0 101085
06:00+18ссз22605 0.0 101048
09:00+20сз02525 0.0 1012281
12:00+21ю23566 0.0 1013537
15:00+22юз33580 0.0 1013483
18:00+21зюз33640 0.0 1013302
21:00+19сз11774 0.0 101317